User: anonymous
Location: Unspecified
(0.0000°N, 0.0000°E)
Time: 05:06:51
(UTC+02:00)
Language:

Sapphire - Orbit

View from above orbital plane
View from above orbital plane
View from above satellite
View from above satellite

Ground track
Ground track

The orbit data is extracted from the following two-line orbital elements,

1 26932U 01043D   14205.78682813  .00000028  00000-0  42728-4 0  6652
2 26932 067.0577 302.4901 0005446 293.3892 066.6636 14.30016428669025
Epoch (UTC): 24 July 2014 18:53:01
Eccentricity: 0.0005446
inclination: 67.0577°
perigee height: 788 km
apogee height: 795 km
right ascension of ascending node: 302.4901°
argument of perigee: 293.3892°
revolutions per day: 14.30016428
mean anomaly at epoch: 66.6636°
orbit number at epoch: 66902

The dashed part of the orbit path shows where the satellite is in the earth's shadow,  

DLR